Weather History for Pauls Valley, OK

Change the Weather History Date:

Saturday, December 14, 2013

  Actual Average (KADH) Record (KADH)
Temperature  
Mean Temperature 34 °F -  
Max Temperature 41 °F 52 °F 76 °F (1933)
Min Temperature 28 °F 30 °F 5 °F (1958)
Degree Days  
Heating Degree Days 30    
Moisture  
Dew Point 31 °F    
Average Humidity 84    
Maximum Humidity 100    
Minimum Humidity 65    
Precipitation  
Precipitation 0.00 in - - ()
Sea Level Pressure  
Sea Level Pressure 30.13 in    
Wind  
Wind Speed 9 mph (NNW)    
Max Wind Speed 23 mph    
Max Gust Speed 30 mph    
Visibility 6 miles    
Events Fog    
Averages and records for this station are not official NWS values.
T = Trace of Precipitation, MM = Missing Value Source: NWS Daily Summary

Daily Weather History Graph

Daily Weather History Graph

Search for Another Location

Airport:

Trip Planner

Search our weather history database for the weather conditions in past years. The results will help you decide how hot, cold, wet, or windy it might be!

Date:

Astronomy

Dec. 14, 2013 Rise Set
Actual Time 7:28 AM CST 5:19 PM CST
Civil Twilight 7:00 AM CST 5:47 PM CST
Nautical Twilight 6:28 AM CST 6:18 PM CST
Astronomical Twilight 5:57 AM CST 6:49 PM CST
Moon 3:38 PM CST (12/14) 4:54 AM CST (12/14)
Length of Visible Light 10h 46m
Length of Day
9h 50m
Waxing Gibbous, 94% of the Moon is Illuminated
Dec 14
Waxing Gibbous
Dec 17
Full
Dec 25
Last Quarter
Jan 1
New
Jan 7
First Quarter

Hourly Weather History & Observations

Time (CST) Temp. Windchill Dew Point Humidity Pressure Visibility Wind Dir Wind Speed Gust Speed Precip Events Conditions
12:15 AM 41.0 °F 39.0 °F 41.0 °F 100% 29.83 in 0.2 mi East 3.5 mph - N/A Fog Fog
12:35 AM 41.0 °F 38.0 °F 41.0 °F 100% 29.84 in 0.2 mi ENE 4.6 mph - N/A Fog Fog
12:55 AM 41.0 °F 39.0 °F 41.0 °F 100% 29.84 in 0.2 mi ENE 3.5 mph - N/A Fog Fog
1:15 AM 41.0 °F 38.0 °F 41.0 °F 100% 29.83 in 0.2 mi NE 4.6 mph - N/A Fog Fog
1:35 AM 41.0 °F 39.0 °F 41.0 °F 100% 29.84 in 0.2 mi ENE 3.5 mph - N/A Fog Fog
1:55 AM 41.0 °F 39.0 °F 41.0 °F 100% 29.84 in 0.5 mi NNE 3.5 mph - N/A Fog Fog
2:15 AM 41.0 °F - 41.0 °F 100% 29.86 in 0.5 mi Calm Calm - N/A Fog Fog
2:35 AM 41.0 °F 39.0 °F 41.0 °F 100% 29.85 in 0.5 mi NNE 3.5 mph - N/A Fog Fog
2:55 AM 41.0 °F 36.4 °F 41.0 °F 100% 29.87 in 1.0 mi North 6.9 mph - N/A   Mist
3:15 AM 41.0 °F 36.4 °F 41.0 °F 100% 29.88 in 1.5 mi North 6.9 mph - N/A   Mist
3:35 AM 41.0 °F 35.8 °F 41.0 °F 100% 29.89 in 1.0 mi North 8.1 mph - N/A   Mist
3:55 AM 41.0 °F 35.2 °F 41.0 °F 100% 29.91 in 3.0 mi NNW 9.2 mph - N/A   Mist
4:15 AM 41.0 °F 34.7 °F 41.0 °F 100% 29.92 in 3.0 mi NNW 10.4 mph - N/A   Mist
4:35 AM 41.0 °F 35.8 °F 41.0 °F 100% 29.92 in 3.0 mi NNW 8.1 mph - N/A   Mist
4:55 AM 41.0 °F 34.3 °F 41.0 °F 100% 29.93 in 3.0 mi NNW 11.5 mph - N/A   Mist
5:15 AM 41.0 °F 33.9 °F 41.0 °F 100% 29.95 in 3.0 mi NNW 12.7 mph 18.4 mph N/A   Mist
5:35 AM 41.0 °F 33.9 °F 41.0 °F 100% 29.96 in 4.0 mi NNW 12.7 mph 21.9 mph N/A   Mist
5:55 AM 41.0 °F 32.2 °F 39.2 °F 93% 29.97 in 4.0 mi NNW 18.4 mph 21.9 mph N/A   Mist
6:15 AM 39.2 °F 29.6 °F 37.4 °F 93% 29.99 in 5.0 mi NNW 19.6 mph 23.0 mph N/A   Mist
6:35 AM 37.4 °F 27.5 °F 35.6 °F 93% 30.00 in 5.0 mi NNW 18.4 mph 27.6 mph N/A   Mist
6:55 AM 35.6 °F 25.5 °F 33.8 °F 93% 30.02 in 5.0 mi NNW 17.3 mph 29.9 mph N/A   Mist
7:15 AM 35.6 °F 25.5 °F 33.8 °F 93% 30.04 in 5.0 mi NNW 17.3 mph 24.2 mph N/A   Mist
7:35 AM 35.6 °F 24.5 °F 32.0 °F 87% 30.04 in 5.0 mi NNW 20.7 mph 26.5 mph N/A   Mist
7:55 AM 33.8 °F 22.2 °F 32.0 °F 93% 30.06 in 4.0 mi NNW 20.7 mph 29.9 mph N/A   Mist
8:15 AM 33.8 °F 22.8 °F 30.2 °F 87% 30.08 in 4.0 mi North 18.4 mph 27.6 mph N/A   Haze
8:35 AM 32.0 °F 20.1 °F 30.2 °F 93% 30.09 in 4.0 mi NNW 19.6 mph 24.2 mph N/A   Mist
8:55 AM 32.0 °F 21.6 °F 28.4 °F 87% 30.11 in 4.0 mi NNW 15.0 mph 25.3 mph N/A   Haze
9:15 AM 32.0 °F 21.6 °F 30.2 °F 93% 30.12 in 4.0 mi NNW 15.0 mph 19.6 mph N/A   Mist
9:35 AM 33.8 °F 23.9 °F 30.2 °F 87% 30.13 in 5.0 mi NNW 15.0 mph 24.2 mph N/A   Haze
9:55 AM 33.8 °F 23.2 °F 28.4 °F 81% 30.15 in 5.0 mi NNW 17.3 mph 25.3 mph N/A   Haze
10:15 AM 33.8 °F 23.2 °F 28.4 °F 81% 30.16 in 5.0 mi NNW 17.3 mph 23.0 mph N/A   Haze
10:35 AM 32.0 °F 19.2 °F 28.4 °F 87% 30.18 in 7.0 mi North 23.0 mph 28.8 mph N/A   Unknown
10:55 AM 32.0 °F 20.5 °F 28.4 °F 87% 30.19 in 7.0 mi NNW 18.4 mph 26.5 mph N/A   Unknown
11:15 AM 32.0 °F 20.8 °F 26.6 °F 80% 30.21 in 7.0 mi NNW 17.3 mph 23.0 mph N/A   Unknown
11:35 AM 32.0 °F 20.1 °F 26.6 °F 80% 30.21 in 7.0 mi NW 19.6 mph 25.3 mph N/A   Unknown
11:55 AM 32.0 °F 20.8 °F 26.6 °F 80% 30.21 in 10.0 mi NNW 17.3 mph 25.3 mph N/A   Unknown
12:15 PM 33.8 °F 22.5 °F 26.6 °F 75% 30.20 in 10.0 mi NNW 19.6 mph 25.3 mph N/A   Unknown
12:35 PM 33.8 °F 23.5 °F 26.6 °F 75% 30.21 in 10.0 mi NNW 16.1 mph 25.3 mph N/A   Unknown
12:55 PM 33.8 °F 22.2 °F 26.6 °F 75% 30.21 in 7.0 mi NNW 20.7 mph - N/A   Unknown
1:15 PM 33.8 °F 22.2 °F 26.6 °F 75% 30.21 in 7.0 mi North 20.7 mph 25.3 mph N/A   Unknown
1:35 PM 33.8 °F 24.3 °F 26.6 °F 75% 30.21 in 7.0 mi NNW 13.8 mph 20.7 mph N/A   Unknown
1:55 PM 35.6 °F 26.6 °F 26.6 °F 70% 30.22 in 7.0 mi NNW 13.8 mph 20.7 mph N/A   Unknown
2:15 PM 35.6 °F 25.5 °F 26.6 °F 70% 30.22 in 7.0 mi NNW 17.3 mph 21.9 mph N/A   Unknown
2:35 PM 37.4 °F 28.2 °F 26.6 °F 65% 30.23 in 10.0 mi NNW 16.1 mph - N/A   Unknown
2:55 PM 37.4 °F 28.5 °F 26.6 °F 65% 30.23 in 7.0 mi North 15.0 mph 21.9 mph N/A   Unknown
3:15 PM 37.4 °F 28.2 °F 26.6 °F 65% 30.23 in 10.0 mi NNW 16.1 mph 21.9 mph N/A   Unknown
3:35 PM 35.6 °F 25.2 °F 26.6 °F 70% 30.24 in 7.0 mi NNW 18.4 mph - N/A   Unknown
3:55 PM 35.6 °F 26.2 °F 26.6 °F 70% 30.24 in 7.0 mi NNW 15.0 mph 19.6 mph N/A   Unknown
4:15 PM 35.6 °F 26.6 °F 24.8 °F 65% 30.25 in 7.0 mi NNW 13.8 mph 18.4 mph N/A   Unknown
4:35 PM 35.6 °F 27.5 °F 24.8 °F 65% 30.25 in 10.0 mi NNW 11.5 mph - N/A   Unknown
4:55 PM 35.6 °F 29.9 °F 26.6 °F 70% 30.26 in 10.0 mi NNW 6.9 mph - N/A   Unknown
5:15 PM 33.8 °F 27.7 °F 26.6 °F 75% 30.26 in 10.0 mi NNW 6.9 mph - N/A   Unknown
5:35 PM 33.8 °F 28.6 °F 26.6 °F 75% 30.26 in 10.0 mi NNW 5.8 mph - N/A   Unknown
5:55 PM 32.0 °F 26.4 °F 26.6 °F 80% 30.26 in 10.0 mi NW 5.8 mph - N/A   Unknown
6:15 PM 32.0 °F 26.4 °F 24.8 °F 75% 30.26 in 10.0 mi NW 5.8 mph - N/A   Unknown
6:35 PM 32.0 °F 28.7 °F 24.8 °F 75% 30.27 in 10.0 mi WNW 3.5 mph - N/A   Unknown
6:55 PM 32.0 °F 27.5 °F 24.8 °F 75% 30.27 in 10.0 mi NNW 4.6 mph - N/A   Unknown
7:15 PM 32.0 °F 26.4 °F 24.8 °F 75% 30.27 in 10.0 mi NW 5.8 mph - N/A   Unknown
7:35 PM 32.0 °F 25.6 °F 24.8 °F 75% 30.28 in 7.0 mi NNW 6.9 mph - N/A   Unknown
7:55 PM 32.0 °F 25.6 °F 24.8 °F 75% 30.28 in 7.0 mi NW 6.9 mph - N/A   Unknown
8:15 PM 30.2 °F 22.6 °F 24.8 °F 80% 30.28 in 7.0 mi NW 8.1 mph - N/A   Unknown
8:35 PM 30.2 °F 23.4 °F 24.8 °F 80% 30.29 in 7.0 mi NW 6.9 mph - N/A   Unknown
8:55 PM 30.2 °F 25.4 °F 24.8 °F 80% 30.29 in 7.0 mi NW 4.6 mph - N/A   Unknown
9:15 PM 28.4 °F 24.6 °F 24.8 °F 86% 30.29 in 7.0 mi WNW 3.5 mph - N/A   Unknown
9:35 PM 28.4 °F 23.3 °F 24.8 °F 86% 30.29 in 7.0 mi WNW 4.6 mph - N/A   Unknown
9:55 PM 30.2 °F - 24.8 °F 80% 30.29 in 10.0 mi Calm Calm - N/A   Unknown
10:15 PM 30.2 °F - 24.8 °F 80% 30.29 in 7.0 mi Calm Calm - N/A   Unknown
10:35 PM 28.4 °F - 24.8 °F 86% 30.30 in 7.0 mi Calm Calm - N/A   Unknown
10:55 PM 30.2 °F - 24.8 °F 80% 30.30 in 7.0 mi Calm Calm - N/A   Unknown
11:15 PM 30.2 °F - 24.8 °F 80% 30.30 in 7.0 mi Calm Calm - N/A   Unknown
11:35 PM 30.2 °F 26.7 °F 23.0 °F 75% 30.30 in 10.0 mi West 3.5 mph - N/A   Unknown
11:55 PM 28.4 °F - 23.0 °F 80% 30.30 in 10.0 mi Calm Calm - N/A   Unknown